Location: Peterborough
(44.3091°N, 78.3197°W)
Time: 16:53:12
(UTC-04:00)

Transit 2A - Pass Details

Date: 31 March 2023
Orbit: 591 x 964 km, 66.7° (Epoch: 04 June)

Event Time Altitude Azimuth Distance (km) Brightness Sun altitude
Rises 12:43:28 0° 330° (NNW) 3,636 9.1 49.2°
Reaches altitude 10° 12:46:09 10° 336° (NNW) 2,703 8.5 49.3°
Maximum altitude 12:52:19 48° 50° (NE) 1,235 7.4 49.6°
Drops below altitude 10° 12:58:20 10° 125° (SE) 2,643 9.3 49.7°
Sets 13:00:55 0° 130° (SE) 3,548 9.9 49.8°
